Theta_e
298 300 301 315 311 312 313 315 317 318 319 321 322 323 323 322 322 322 322 322 322 323 324 324 324 325 326 327 328 329 330 330 331 330 331 332 331 331 332 332 332 333 334 335 337 339 340 341 341 340 340 341 343 343 345 345 344 344 344 343 343 344 344 344 343 342 343 344 344 344 344 343 344 343 343 343 343 341 339 339 342 338 336 337 340
297 299 300 301 311 311 311 315 317 317 319 320 322 322 322 322 322 322 321 321 322 322 322 323 324 325 326 327 328 329 329 330 330 331 330 330 331 330 331 331 332 333 333 334 335 336 338 340 340 340 339 339 340 342 343 346 345 343 343 345 345 344 344 343 343 346 346 344 343 343 343 343 342 342 342 341 340 338 339 340 341 334 333 341 340
299 300 298 302 309 309 310 314 316 316 318 319 321 321 321 321 321 321 320 320 321 321 322 322 323 324 326 327 328 329 329 329 330 330 330 329 330 330 330 331 332 332 332 332 333 335 337 339 339 339 340 340 340 340 342 344 343 343 342 345 345 343 343 343 343 344 345 343 343 343 344 342 342 341 340 339 338 337 340 341 340 339 335 339 339
300 298 299 305 308 308 309 313 315 316 318 319 321 320 320 320 320 320 319 319 319 320 321 322 322 323 325 326 328 328 329 329 330 329 329 329 329 329 330 330 330 331 331 331 332 333 334 335 338 336 338 338 339 339 340 341 343 343 343 344 345 344 344 343 343 344 344 345 344 343 337 335 338 340 338 338 336 338 341 340 339 339 339 338 337
299 299 299 298 303 312 310 313 314 316 317 319 320 319 320 320 320 319 319 319 319 319 320 321 322 322 324 327 327 328 329 329 330 329 329 328 329 328 328 329 329 329 329 330 330 331 332 334 336 337 338 337 338 338 338 339 342 343 343 343 343 343 344 343 342 343 344 343 341 337 327 329 331 338 338 337 336 337 340 339 338 338 336 336 336
299 299 298 298 299 300 310 312 314 315 317 318 318 319 319 319 319 319 318 319 319 319 320 320 321 322 324 326 328 328 328 328 329 329 329 328 328 328 328 328 329 328 328 328 329 330 331 332 335 336 337 335 336 337 337 339 341 343 343 343 343 344 343 343 342 339 341 344 340 329 326 326 326 333 338 337 337 335 336 337 337 336 335 335 335
300 299 298 297 299 305 313 312 314 315 317 318 318 318 319 318 318 318 319 318 318 319 319 320 321 323 324 327 327 328 328 328 328 328 328 328 327 327 327 327 327 327 328 327 327 327 328 330 332 333 334 336 337 337 336 337 339 341 343 342 343 343 343 342 342 340 339 339 329 326 325 326 326 327 338 336 338 336 333 334 337 337 337 336 335
300 301 300 299 298 311 311 312 313 315 317 317 318 318 318 318 318 318 318 318 318 318 318 319 321 323 324 326 327 327 327 327 327 327 327 327 327 327 326 327 326 327 328 328 326 326 326 328 331 333 333 335 335 336 337 338 339 340 341 342 343 341 342 343 342 343 341 329 326 325 325 324 324 328 337 338 336 337 335 334 334 334 335 335 334
297 298 299 297 299 310 310 311 313 315 316 317 317 318 318 318 318 318 318 318 317 317 318 319 320 322 324 326 326 326 326 326 326 326 326 326 326 326 326 325 326 326 327 327 327 326 325 326 329 332 333 334 335 335 336 337 338 340 341 340 341 339 339 342 342 341 336 325 324 323 324 323 323 326 336 339 336 335 334 333 336 336 335 334 332
297 297 296 296 297 317 310 311 313 315 316 316 317 318 318 318 318 318 318 317 317 318 319 319 320 321 322 323 325 325 325 325 326 326 326 325 325 324 324 325 325 324 324 325 326 326 324 326 327 330 332 333 333 333 335 336 336 335 338 340 337 336 338 341 341 340 327 324 323 322 323 329 323 326 334 340 336 334 333 334 338 336 335 335 333
297 297 297 297 299 312 309 311 313 314 315 315 316 316 316 317 317 317 317 317 318 319 320 319 319 319 321 322 324 324 324 325 325 325 324 323 323 323 323 323 323 322 322 323 325 324 324 324 326 329 330 331 332 332 332 334 334 335 336 338 337 338 339 340 339 330 326 322 321 321 328 334 324 326 338 340 338 335 334 337 335 335 335 333 332
297 297 296 302 314 309 309 311 312 313 313 314 315 315 316 316 316 317 317 318 319 319 318 318 318 319 319 320 322 323 324 324 324 322 322 322 322 323 323 322 322 321 321 322 323 324 323 324 325 327 329 330 330 331 331 331 333 335 336 337 338 339 339 340 333 327 325 322 321 321 321 329 326 330 338 340 339 337 335 337 336 334 335 333 330
298 297 297 300 299 313 310 310 311 311 312 313 313 314 314 315 316 316 317 318 317 316 316 316 316 316 317 318 320 323 324 324 322 322 322 322 322 322 322 322 321 320 320 320 321 322 323 323 324 326 328 329 329 330 330 331 331 333 335 335 338 338 338 339 329 326 324 321 322 324 319 322 326 337 339 340 339 338 338 337 337 336 335 332 330
298 298 298 299 299 315 311 310 310 310 311 312 312 313 313 314 315 315 316 317 315 315 314 315 314 315 315 316 319 322 323 322 321 320 320 320 320 319 319 321 321 321 320 320 320 320 321 322 323 324 326 327 327 329 329 329 330 333 335 334 336 336 337 337 331 326 325 323 324 321 319 324 327 339 340 341 338 339 338 337 336 336 334 332 327
297 299 299 299 302 304 313 311 310 310 310 311 311 312 313 313 314 314 315 314 314 313 313 313 312 313 314 315 318 320 320 320 320 319 318 318 318 318 317 319 319 319 320 320 320 321 321 321 322 323 325 326 326 327 328 330 331 331 332 334 335 335 335 334 330 327 325 325 324 325 319 326 334 340 341 340 339 338 338 336 334 336 334 332 327
299 299 301 301 299 299 304 311 312 311 310 310 310 311 312 312 313 313 313 313 312 312 312 311 311 312 312 312 314 316 318 319 318 317 316 316 316 317 318 318 318 318 318 318 319 319 320 321 321 323 324 325 325 326 327 329 331 332 332 333 334 333 333 332 328 325 324 324 323 322 321 329 338 340 340 340 339 338 338 337 331 331 333 333 332
301 303 300 300 299 299 299 303 307 313 313 311 311 311 311 311 312 312 311 311 311 310 310 310 310 310 310 310 311 313 315 316 317 317 316 316 316 317 318 318 319 318 318 318 318 319 319 320 321 321 323 324 325 326 327 329 329 331 332 332 332 332 332 330 327 324 323 324 323 321 323 331 338 341 340 339 338 338 337 338 331 331 331 334 332
301 301 299 299 299 300 301 299 302 301 301 308 312 311 311 311 311 311 310 310 309 309 309 308 308 308 308 308 310 313 314 315 315 316 315 316 317 317 317 318 318 317 317 317 317 318 319 319 320 320 322 323 324 325 326 327 327 328 329 331 331 331 331 329 326 324 323 327 321 323 327 337 340 341 340 340 339 339 337 336 333 331 331 332 332
299 301 299 300 300 299 299 298 302 299 298 298 297 300 311 312 312 311 310 310 309 309 308 308 308 308 308 308 309 311 312 313 314 315 314 315 317 317 317 318 317 317 316 315 316 317 318 318 319 320 321 322 323 324 325 326 325 326 327 329 331 329 329 328 325 324 326 324 321 326 329 339 340 339 338 336 334 332 333 332 332 331 332 332 332
299 300 299 300 299 298 297 297 297 297 298 298 298 297 304 312 312 312 311 310 309 309 308 307 307 307 306 306 308 308 309 309 313 310 312 314 315 315 317 317 318 317 317 315 314 315 316 317 318 320 321 322 322 323 324 324 324 325 326 329 330 329 329 327 325 323 324 323 324 325 334 338 338 337 336 335 334 333 333 333 334 334 334 334 334
300 298 299 299 298 297 296 297 297 298 298 297 299 298 301 311 309 308 309 309 308 308 307 305 305 303 302 304 304 303 304 305 306 306 311 310 314 315 316 317 317 318 317 315 312 313 314 316 318 319 320 321 321 322 323 322 323 324 327 328 329 329 328 326 324 323 322 324 325 324 337 337 336 335 335 334 334 333 333 334 335 335 335 334 335
295 295 296 297 297 296 296 296 296 297 297 299 299 300 301 305 298 296 298 302 304 306 299 298 302 294 300 297 298 302 302 303 305 309 308 310 311 315 316 317 317 318 318 316 315 314 314 316 317 319 319 319 320 318 316 319 321 323 325 326 328 328 328 326 323 323 323 325 327 328 336 335 334 334 333 333 333 333 333 334 335 335 335 334 334
294 295 296 296 296 296 296 298 297 296 297 297 298 299 299 297 297 297 299 302 300 300 294 296 293 293 294 294 300 298 300 302 305 309 310 312 312 314 315 316 316 317 318 318 316 315 314 315 317 318 319 319 317 311 311 314 317 322 324 326 328 328 327 324 322 322 322 323 325 334 337 335 334 334 332 332 332 334 334 335 335 334 333 333 333
294 294 295 298 297 297 296 296 297 296 297 296 299 298 297 297 298 297 296 295 295 296 293 293 293 293 293 294 296 297 300 301 307 309 310 310 311 314 314 314 314 315 316 317 317 316 315 315 315 316 317 317 309 309 309 313 317 320 325 327 328 327 326 323 322 321 321 323 325 331 333 333 335 334 332 331 333 333 333 334 334 334 333 333 333
294 295 297 298 297 296 297 296 298 296 297 295 299 296 298 297 296 295 296 295 295 294 294 292 292 293 292 293 295 297 299 301 303 305 307 310 312 311 311 310 311 311 314 314 314 311 313 311 311 313 311 310 308 306 309 313 317 320 326 327 327 327 325 322 322 321 321 322 325 329 331 333 334 335 334 331 331 333 332 333 334 334 333 332 332
294 297 294 294 295 298 296 296 297 297 298 296 296 298 300 295 296 295 297 296 296 295 294 292 293 293 291 293 296 295 297 300 302 304 307 309 311 311 310 310 309 310 311 313 314 313 309 309 310 310 307 306 307 307 310 315 316 320 324 325 326 325 324 322 321 321 320 320 322 325 327 330 333 335 335 333 330 335 332 335 334 333 332 331 332
293 295 293 294 298 297 296 296 296 296 296 296 296 296 295 295 295 296 299 296 297 295 292 292 293 293 291 293 294 293 296 298 301 304 306 308 310 311 311 309 308 308 310 311 312 313 314 311 311 311 308 305 306 309 312 313 316 319 324 324 325 324 323 322 321 319 318 318 321 324 327 328 330 333 332 333 334 335 336 335 333 332 331 331 332
294 294 294 295 297 298 297 297 296 296 295 296 296 295 295 295 295 301 296 297 299 295 292 293 294 292 293 292 296 293 294 296 300 303 305 307 309 311 312 310 308 308 310 311 311 311 312 314 313 313 313 308 307 311 314 316 318 321 324 323 323 322 323 321 319 317 317 317 319 323 326 327 328 330 330 331 332 332 332 332 332 331 331 332 330
294 294 294 295 296 298 298 297 296 299 297 296 297 295 295 295 295 295 295 301 297 293 293 294 292 292 291 292 294 292 293 295 298 303 305 307 309 310 311 311 309 308 309 310 310 310 310 311 312 314 315 314 314 315 316 316 319 324 324 321 321 320 320 318 316 316 315 316 317 322 324 327 328 328 330 331 331 332 332 332 332 331 330 330 329
296 294 294 295 295 296 297 297 297 296 297 297 296 295 295 295 296 295 294 298 294 294 295 292 291 290 290 292 292 292 293 294 296 301 305 306 308 310 310 311 311 309 308 309 310 310 309 309 310 310 310 311 310 311 313 315 315 323 323 321 319 318 317 316 314 314 314 314 315 318 321 324 328 330 330 330 330 330 330 329 330 329 329 329 329
296 295 294 295 297 298 296 296 296 301 297 297 296 296 296 295 297 295 295 294 294 296 294 292 292 290 292 291 291 291 295 294 295 299 304 306 308 309 309 310 310 310 310 309 310 309 308 307 307 308 308 309 309 311 312 312 313 315 319 319 316 316 314 314 313 313 313 313 312 313 317 322 324 328 329 329 329 329 329 328 328 328 328 329 329
294 295 294 294 296 296 295 296 296 297 300 297 299 298 298 296 297 295 294 295 295 294 293 293 295 291 291 291 291 291 296 293 294 297 302 305 307 308 309 309 309 310 310 309 309 309 309 308 307 307 307 308 308 309 310 311 311 311 314 314 315 314 313 312 311 311 311 311 311 310 311 314 320 322 325 327 327 327 328 327 326 327 328 329 330
295 295 294 296 295 295 296 296 297 297 297 296 296 296 296 296 295 294 295 298 294 293 293 294 293 291 292 290 290 291 294 292 293 295 299 302 304 307 308 309 309 309 309 309 309 309 308 308 307 307 306 307 307 308 308 308 308 308 310 311 312 312 312 311 310 309 309 310 310 309 309 310 311 317 319 320 323 325 326 326 325 325 327 327 329
295 294 294 295 297 298 300 299 298 297 298 296 297 296 296 296 298 296 297 296 293 292 295 294 293 292 291 290 290 292 293 291 292 293 296 300 301 304 306 308 309 309 309 309 308 307 306 306 307 306 305 305 305 306 307 306 307 307 307 308 308 309 310 310 309 308 307 306 306 306 306 307 307 308 310 317 318 321 323 324 325 325 325 326 328
296 294 294 295 297 297 299 299 301 298 299 298 298 298 297 297 297 296 296 295 294 293 292 293 292 291 291 289 291 293 293 291 292 292 294 297 299 302 303 305 308 309 309 308 308 307 305 304 306 305 305 305 305 305 305 305 305 305 306 307 307 307 307 307 307 306 305 304 304 304 304 304 304 304 304 303 313 316 318 320 323 324 324 325 326
294 295 294 296 295 294 297 296 297 298 297 298 297 296 297 296 296 301 297 294 293 294 293 293 293 291 291 289 290 293 293 290 291 292 293 295 296 299 302 303 306 308 308 308 308 307 306 304 304 305 304 304 305 304 304 304 304 304 305 305 306 306 306 306 306 306 305 304 304 304 303 302 301 302 305 303 303 307 315 317 320 323 323 323 324
294 293 294 294 295 295 298 296 296 296 296 295 296 295 295 295 295 295 295 294 294 293 293 293 292 290 290 289 290 294 292 291 291 291 292 293 294 297 300 302 304 305 306 307 307 307 306 305 304 304 304 303 304 304 304 304 303 303 304 304 304 305 305 305 305 305 306 305 304 305 304 303 303 306 302 302 303 303 310 315 317 319 320 320 321
293 294 293 295 295 294 294 295 295 295 295 296 296 296 296 295 294 294 297 296 295 294 294 292 293 291 289 290 290 292 295 291 290 291 291 293 293 294 296 300 302 302 303 304 305 306 306 305 304 303 303 303 304 304 303 303 303 303 303 303 304 304 304 304 304 305 305 304 304 303 303 303 303 303 303 302 302 303 303 308 313 313 314 315 316
294 294 293 293 294 294 295 296 298 296 295 295 295 296 295 294 293 293 293 293 293 293 293 292 293 292 290 290 292 294 294 292 291 291 291 293 291 292 294 296 300 300 301 301 301 302 304 304 304 303 302 302 302 303 303 304 304 303 303 302 303 303 303 304 304 303 303 304 303 303 303 303 303 303 303 302 302 302 302 302 302 302 303 312 313
294 293 295 294 293 294 294 294 295 296 295 295 295 294 294 294 294 293 293 292 291 294 293 293 293 291 293 292 292 291 291 294 292 290 290 292 291 291 292 293 296 298 298 299 299 299 299 300 301 301 300 300 301 302 303 302 301 300 301 302 302 302 303 303 303 303 303 303 303 303 303 303 302 303 302 303 301 301 302 302 302 303 303 306 311
294 294 294 293 293 295 295 295 296 294 295 295 294 294 294 293 291 291 291 291 292 293 294 292 291 291 291 291 292 293 292 290 293 291 290 292 291 290 290 291 293 296 297 296 296 298 298 299 299 299 301 299 300 300 301 298 297 298 299 300 300 301 301 301 301 301 301 300 300 301 302 302 301 301 302 301 301 300 300 301 302 302 303 302 305
295 294 294 295 294 293 294 296 295 294 294 296 296 295 292 293 293 294 292 291 292 293 293 292 292 294 293 292 292 292 292 291 293 291 293 290 289 289 289 290 291 293 294 294 295 298 297 299 297 298 296 298 299 299 299 300 298 299 298 297 296 297 298 299 300 300 300 299 298 298 299 299 301 301 300 299 298 298 299 299 299 300 300 301 301
292 292 293 293 293 293 294 295 295 295 295 295 294 294 293 294 293 293 292 292 291 292 292 294 293 293 292 292 292 292 292 291 291 292 291 290 289 289 290 289 290 293 292 292 292 294 295 295 296 296 296 294 295 296 299 297 299 296 296 297 296 297 298 297 297 300 301 300 299 299 299 299 299 299 299 297 297 297 298 298 297 298 299 299 300
294 294 294 294 294 296 294 294 296 295 295 296 298 296 295 294 294 293 293 293 295 294 294 294 294 293 295 293 293 293 292 292 291 290 292 290 289 289 289 289 289 292 291 290 290 291 293 294 294 295 295 293 294 294 295 295 295 296 296 296 295 295 294 295 294 298 299 300 299 300 300 300 299 298 296 297 298 298 298 297 297 298 298 299 299
295 295 295 295 297 296 296 295 296 296 295 297 296 296 296 295 294 294 293 294 293 292 292 293 293 293 295 293 295 292 292 292 292 291 292 291 289 289 289 289 289 289 291 290 289 290 291 293 293 294 294 296 294 292 293 294 296 296 297 293 293 294 294 294 293 294 295 296 298 299 298 299 299 299 298 298 298 298 298 297 297 297 298 298 298
295 296 296 296 294 296 295 295 294 294 295 295 295 295 295 295 294 293 292 291 291 290 291 291 292 293 293 292 293 292 292 292 291 291 290 292 290 289 288 289 289 290 291 289 288 290 290 292 293 294 294 293 294 293 291 293 294 295 294 297 299 296 293 293 296 293 293 296 295 295 298 298 298 298 298 298 298 298 297 297 298 298 298 298 298
295 296 294 295 295 295 295 294 295 295 295 294 294 297 294 293 293 294 293 293 291 291 290 291 291 293 293 292 293 293 292 292 292 290 290 290 291 290 289 289 289 289 291 290 287 287 288 290 293 293 292 294 294 293 291 292 293 293 294 295 295 295 294 295 292 290 292 290 292 295 297 297 297 297 298 298 298 297 297 297 297 298 298 298 298
294 293 294 294 295 296 295 295 294 296 295 294 294 295 295 293 293 292 294 292 292 294 293 293 292 293 293 294 293 292 292 291 292 291 290 290 291 290 289 289 289 289 291 290 288 287 289 289 292 291 291 293 291 292 291 290 294 294 291 293 294 293 292 295 291 294 291 290 293 291 291 293 293 296 297 298 298 297 298 297 297 297 297 298 298
292 293 294 294 295 294 295 294 295 294 295 293 295 293 296 295 294 293 293 295 294 294 294 294 294 293 292 293 292 292 292 292 291 292 291 290 292 292 289 289 289 289 291 291 289 288 287 287 287 287 288 290 292 291 290 290 290 291 292 291 292 292 292 292 291 292 292 288 291 289 292 286 288 292 295 296 297 298 298 298 298 297 297 297 297
292 292 293 292 293 292 294 295 296 295 294 293 293 294 293 295 294 293 293 294 293 293 291 292 293 291 292 293 292 292 293 293 293 291 291 291 290 290 291 290 289 289 291 290 288 287 287 287 288 287 287 287 288 290 290 289 291 290 291 291 291 289 290 290 291 291 290 292 291 286 285 286 290 290 289 292 295 296 297 297 297 296 297 297 297
292 292 293 292 292 293 293 294 295 294 293 294 293 294 292 293 294 294 293 294 294 292 292 293 292 292 293 293 293 293 292 293 292 294 292 292 290 291 291 290 290 291 292 290 289 289 288 287 288 287 287 287 287 286 288 288 289 288 288 290 291 292 292 291 289 289 292 290 287 290 289 290 291 292 292 293 294 295 296 295 296 296 296 297 297
Wind_Speed
1 0 0 4 6 6 7 8 11 12 12 12 12 12 13 13 14 14 15 15 15 15 15 15 16 16 16 17 17 17 17 17 17 17 16 17 17 17 17 17 18 17 17 17 19 19 20 19 15 11 16 13 14 13 12 11 9 12 11 8 8 10 11 11 11 15 17 15 13 12 13 11 10 10 11 10 10 10 6 7 7 4 4 7 12
2 2 1 1 5 6 7 8 11 13 12 12 12 12 12 13 13 14 14 15 15 15 15 16 16 16 17 17 17 17 17 18 18 18 17 17 17 17 16 17 17 17 16 16 18 20 20 19 18 14 12 15 13 14 14 13 10 8 12 9 8 10 10 10 7 6 7 13 12 12 12 13 11 9 10 9 9 9 6 9 7 3 3 9 11
3 2 2 1 4 5 6 8 10 12 12 12 12 12 13 13 13 14 14 13 14 14 14 15 15 16 16 17 17 17 17 18 18 18 18 16 15 17 17 17 18 17 17 17 18 19 21 20 18 16 13 12 13 15 15 15 12 7 8 12 10 9 9 9 7 5 6 13 13 11 10 12 12 11 10 9 9 8 8 11 7 5 5 10 8
4 3 2 1 3 3 5 7 10 12 12 12 13 13 13 13 14 13 13 13 13 13 14 14 14 15 15 16 16 17 17 18 19 18 17 17 17 15 16 17 17 18 17 16 16 19 20 21 20 16 13 13 15 14 14 16 14 11 6 11 13 11 10 10 8 7 7 12 11 7 3 5 9 12 11 10 9 10 9 12 11 8 9 8 9
4 4 3 1 0 3 5 7 10 12 12 13 13 13 13 14 14 14 13 13 13 14 14 14 14 14 15 16 15 16 16 17 19 19 18 17 17 16 15 17 17 17 17 18 18 19 20 21 21 18 13 14 13 12 10 14 15 14 11 9 14 14 13 12 9 10 7 11 10 6 3 4 5 10 12 12 11 10 10 12 12 11 9 9 8
4 4 3 2 0 1 4 6 10 11 11 12 12 13 13 13 13 14 14 14 14 14 14 14 15 15 16 16 16 16 16 17 18 19 19 18 18 16 15 16 17 17 17 17 17 17 20 21 21 19 17 14 11 10 10 14 13 15 14 11 14 15 15 13 11 11 6 10 10 5 4 4 4 3 13 12 12 9 9 9 11 10 9 7 7
5 3 3 1 1 2 3 7 9 10 10 11 12 12 13 13 13 13 14 14 14 14 14 15 15 16 16 16 17 17 18 17 18 18 19 18 18 18 16 17 17 18 17 16 17 19 20 21 21 20 16 15 13 12 10 14 11 14 16 13 12 16 17 15 12 14 12 7 5 5 5 4 3 0 12 11 13 12 10 9 10 12 11 8 6
3 2 2 2 1 2 4 8 8 9 10 11 11 12 12 12 12 13 13 13 14 14 14 14 15 15 17 17 17 18 18 18 18 18 18 18 18 18 18 17 18 18 19 19 18 17 18 20 20 21 18 14 12 13 14 12 11 11 17 15 14 16 17 14 11 9 10 6 6 5 5 4 3 1 11 12 12 12 11 11 9 8 8 8 7
3 2 2 2 1 3 7 8 8 9 10 10 11 11 12 12 12 13 13 13 13 14 14 14 14 15 16 17 17 18 18 19 19 19 18 19 18 18 18 17 16 16 17 18 18 17 17 19 19 20 19 16 11 12 13 12 10 11 15 15 11 12 11 11 10 11 8 6 6 6 5 4 3 2 9 13 12 12 11 9 9 11 10 8 7
2 1 2 2 0 4 6 7 7 8 9 10 11 11 12 12 12 12 13 13 13 14 14 14 15 15 16 17 19 19 19 19 19 19 18 19 17 17 17 18 19 18 17 18 18 17 17 18 19 19 18 16 10 10 13 13 11 10 13 16 11 11 13 13 13 11 6 6 6 6 5 5 3 3 7 14 13 12 11 8 4 3 5 9 8
2 1 2 2 1 3 5 6 7 8 9 10 10 11 12 12 12 12 13 13 13 14 14 15 15 15 16 16 17 18 19 19 18 18 17 17 17 17 18 18 18 18 17 17 17 17 17 17 18 18 16 16 11 9 11 13 14 10 11 14 17 17 18 12 12 6 6 5 5 5 5 9 4 4 10 16 14 12 10 8 7 4 10 10 10
3 2 3 2 2 2 4 5 6 7 8 9 10 11 12 12 12 13 13 13 14 14 15 15 15 16 16 16 18 19 18 17 16 17 17 17 18 17 17 17 17 16 17 17 16 16 17 16 17 18 15 16 12 12 12 13 13 12 13 12 17 16 16 12 9 7 6 6 6 6 5 4 5 7 17 16 14 13 11 10 8 7 12 10 9
4 4 3 3 1 4 4 4 5 7 8 9 10 11 12 12 13 13 13 13 14 14 15 15 16 16 16 15 17 18 17 17 16 17 17 17 16 17 17 17 17 17 16 17 17 16 16 16 16 17 16 14 13 12 11 11 11 13 14 12 18 17 15 14 7 7 6 5 5 6 6 4 5 12 18 17 15 14 13 12 11 10 12 10 9
4 4 4 3 3 4 5 5 5 6 7 9 10 11 12 12 13 13 13 13 14 14 15 15 15 15 15 15 16 17 17 17 17 16 16 17 16 17 17 17 17 18 17 16 17 17 17 16 16 16 15 15 13 13 13 12 11 12 13 12 15 16 15 11 6 6 6 5 4 4 4 3 5 16 16 17 15 15 13 12 13 12 10 9 8
5 5 5 4 4 3 5 7 6 6 6 8 9 11 12 12 13 13 13 14 14 15 15 15 15 15 15 15 15 18 17 18 17 15 15 15 16 16 15 15 16 15 15 14 15 16 17 17 16 16 14 14 12 13 13 12 11 13 14 11 14 14 16 6 5 4 5 5 4 4 4 4 11 18 18 17 16 15 14 13 12 13 11 10 7
5 5 5 4 4 3 3 6 8 7 6 7 9 10 12 12 13 13 14 14 14 15 15 15 15 15 15 16 16 17 17 16 17 16 15 15 15 15 17 16 16 16 16 15 15 15 15 16 15 15 14 14 14 14 14 12 10 10 11 10 10 14 14 8 5 4 5 5 4 4 5 4 15 18 17 16 16 15 14 13 10 11 11 11 9
4 5 5 5 4 4 4 4 6 8 4 5 7 10 11 12 13 13 14 14 14 15 15 15 15 16 16 17 17 17 16 16 16 17 16 15 16 17 17 16 16 16 16 15 14 15 14 15 14 14 14 13 13 14 14 12 10 10 11 9 8 14 14 10 6 5 5 4 3 4 5 5 16 17 17 15 17 15 14 14 10 10 10 12 9
4 4 6 5 4 4 4 4 4 4 1 3 6 8 10 11 12 12 13 14 14 15 15 16 16 16 16 17 17 17 16 16 17 17 17 16 17 16 16 17 16 13 13 13 12 12 12 14 13 13 13 12 12 13 14 12 10 10 12 13 5 11 16 13 4 4 4 5 4 4 5 8 18 17 17 17 17 18 14 14 11 10 11 11 9
4 5 4 3 5 4 4 4 4 3 1 2 3 4 9 10 11 11 12 13 14 14 14 15 16 15 16 16 15 16 16 16 17 17 18 17 17 17 16 15 15 12 12 12 10 10 11 11 11 12 12 12 12 13 13 13 9 8 10 15 9 7 11 10 3 5 4 4 5 5 5 12 16 15 14 12 13 11 12 12 11 11 11 11 10
3 4 4 4 4 4 4 4 4 3 1 2 3 4 6 8 9 10 11 11 12 13 13 14 14 14 14 14 14 11 11 11 17 14 17 18 17 16 16 16 17 15 12 11 9 9 10 10 10 11 11 11 11 13 13 10 9 8 10 13 6 9 6 8 4 3 4 5 5 5 8 15 14 13 13 13 13 13 12 13 13 12 11 9 8
3 3 4 5 4 4 5 4 4 2 1 2 3 4 4 7 6 7 9 9 10 11 11 11 11 10 10 11 11 7 7 7 9 9 15 10 15 17 16 17 18 17 13 10 5 8 9 9 9 10 11 10 10 11 10 8 9 8 10 12 8 7 3 2 1 4 3 5 5 5 12 14 13 13 12 11 13 13 13 13 12 11 10 10 9
2 3 3 3 3 4 4 4 2 1 1 2 3 3 4 5 5 4 4 5 6 8 6 5 7 6 9 8 6 6 6 7 8 9 9 9 10 17 16 15 16 18 17 10 8 7 8 8 9 9 12 10 10 4 3 6 8 10 11 9 6 6 6 4 2 4 4 5 4 7 13 13 13 13 11 11 12 13 12 13 12 9 8 7 7
4 4 4 4 4 4 3 3 1 1 1 2 3 3 4 4 5 4 3 5 5 4 5 5 5 5 6 6 6 6 6 6 7 10 11 13 11 14 15 13 14 16 18 17 6 9 7 6 10 10 11 10 4 3 2 3 4 8 9 5 4 7 8 5 4 4 4 3 2 7 6 9 13 12 11 12 11 12 12 13 11 8 6 4 3
5 4 3 2 3 4 4 2 2 2 1 2 3 4 4 4 5 4 4 4 4 4 4 5 5 5 6 5 6 6 7 6 9 13 12 8 8 10 15 13 12 12 16 11 10 7 8 10 8 9 8 1 1 2 3 4 4 4 5 4 3 3 6 4 4 4 4 3 4 8 8 10 11 2 11 10 11 11 11 13 9 7 5 4 3
4 2 2 4 2 2 1 2 2 2 1 2 2 4 4 4 4 5 4 3 4 5 5 5 5 5 6 5 5 5 6 6 6 7 7 8 8 7 7 6 6 7 11 8 6 4 5 3 4 5 3 0 1 3 3 4 3 5 5 4 6 7 6 4 4 4 3 3 5 9 11 10 7 7 4 10 9 11 11 9 8 7 5 4 4
3 1 4 4 3 3 3 3 2 2 2 3 2 3 3 5 5 5 5 4 4 5 5 6 6 6 5 5 4 6 6 7 7 7 7 7 8 6 6 6 5 6 7 5 6 4 3 4 5 4 4 1 3 3 3 3 4 6 4 4 5 5 5 5 5 5 5 3 4 10 11 9 7 6 4 4 6 4 6 11 8 6 7 5 4
4 5 3 3 3 2 3 2 3 3 3 2 1 1 3 3 4 5 4 6 4 4 5 6 6 5 5 5 6 6 6 6 7 7 8 7 7 6 6 5 5 4 5 6 6 6 5 3 4 4 3 2 4 3 3 4 4 6 3 2 4 4 5 5 4 4 4 4 4 10 9 7 5 7 7 2 6 9 13 11 9 7 6 5 4
1 4 3 3 3 3 2 1 4 2 4 2 1 3 3 4 4 4 4 5 5 4 4 4 5 6 4 5 4 5 5 7 7 7 8 7 7 7 6 5 5 5 3 5 6 6 6 5 1 4 3 2 3 3 4 5 5 6 3 1 3 3 5 5 5 5 4 4 3 7 8 7 6 5 4 3 5 6 7 7 7 6 6 6 5
3 4 4 3 4 3 2 4 4 3 3 1 1 3 3 3 4 4 5 4 5 4 3 4 5 6 5 4 4 6 6 6 7 7 7 7 7 8 6 6 5 5 4 5 7 7 6 6 6 5 2 1 2 2 1 3 3 4 3 2 3 4 5 6 5 5 4 4 5 6 9 8 6 5 5 4 5 7 8 7 8 7 6 5 4
6 4 3 4 4 2 3 4 3 3 2 1 3 2 3 3 4 4 4 4 5 5 2 4 4 4 6 4 4 4 5 5 6 7 7 7 7 7 7 7 6 6 6 5 5 5 6 6 6 5 5 3 2 2 2 3 4 2 3 3 4 4 5 6 6 5 4 4 4 5 11 10 9 8 7 6 5 6 6 6 5 6 4 5 5
2 4 4 5 3 2 4 4 3 2 1 2 2 3 3 4 5 4 4 4 4 4 3 3 3 4 4 4 4 4 5 5 6 6 6 6 6 7 7 7 6 6 6 5 3 5 5 6 6 5 5 4 4 4 4 3 3 5 3 5 5 5 5 5 6 5 5 4 3 4 6 9 8 8 8 7 6 5 4 3 4 3 4 4 6
4 6 5 3 2 5 4 4 3 2 1 2 2 3 4 4 4 4 4 4 3 4 5 3 3 4 3 4 3 4 4 5 5 6 6 7 6 6 6 7 7 6 6 6 6 3 5 4 5 5 5 5 4 3 4 3 6 5 5 6 6 6 5 5 5 5 5 3 3 3 3 4 6 5 5 5 4 3 3 2 2 2 3 4 6
6 5 5 3 5 5 4 4 4 3 3 4 3 4 4 4 4 4 4 4 3 3 4 5 5 3 3 3 4 3 4 4 6 5 6 6 6 6 6 6 6 6 6 6 6 6 5 5 6 5 5 5 5 6 5 4 6 5 4 5 5 6 5 4 4 4 4 5 4 2 3 3 3 4 4 3 2 2 2 3 2 2 3 4 5
5 5 2 4 5 3 3 3 3 4 5 4 4 4 4 4 4 5 4 4 4 3 4 4 3 3 2 2 3 3 3 4 4 6 5 6 6 6 5 5 5 6 5 5 6 5 5 5 5 6 6 6 6 6 5 6 5 4 5 4 5 4 4 4 3 3 2 3 3 3 2 2 2 2 1 2 1 1 2 2 1 2 3 4 6
2 2 6 8 5 5 3 3 3 4 3 4 4 4 4 4 5 5 5 4 4 4 4 4 3 5 1 2 2 2 3 3 3 4 5 5 6 6 6 5 4 3 5 5 5 5 5 5 5 5 5 5 5 6 6 5 5 5 4 3 4 4 4 3 3 3 2 2 3 2 1 1 1 1 1 0 2 2 1 1 1 2 3 4 5
6 6 6 3 4 5 3 4 3 4 4 5 4 4 4 4 4 4 4 4 4 4 5 4 4 4 3 2 1 2 2 2 2 3 5 5 5 6 6 6 6 4 4 4 5 6 5 5 5 5 4 4 5 5 4 4 4 4 4 4 3 4 4 3 3 3 2 2 3 2 1 1 0 1 0 0 1 2 2 2 3 4 5 5 6
5 4 5 4 4 4 3 4 5 5 5 5 4 4 4 4 4 4 4 4 5 6 5 4 3 3 3 3 1 1 2 2 2 2 3 4 5 5 6 6 6 5 5 4 4 4 5 5 5 6 5 4 2 6 4 4 3 3 3 4 3 2 4 3 3 2 3 2 2 1 1 0 0 1 1 2 2 3 4 4 4 4 4 4 4
4 4 4 5 6 5 4 5 4 4 4 4 4 4 4 3 3 3 3 4 4 4 6 3 6 5 3 4 3 1 1 2 3 1 2 2 3 3 5 6 6 6 5 5 5 3 3 4 5 5 5 4 4 4 4 4 2 2 3 3 1 3 3 3 3 3 3 3 3 3 3 2 2 2 3 2 3 3 3 3 3 2 2 2 3
3 4 3 4 2 3 3 4 4 4 4 4 4 4 4 4 3 3 3 3 3 4 3 4 6 5 5 4 3 2 1 1 2 3 2 2 3 4 5 5 5 6 5 5 5 4 4 3 4 4 4 4 3 3 3 3 3 1 2 2 2 1 1 1 2 3 3 4 4 3 2 3 2 3 3 3 2 2 3 3 2 2 2 3 3
2 1 2 1 3 4 3 4 4 4 3 3 3 4 3 4 5 5 4 3 2 3 2 5 4 4 5 4 4 3 2 1 1 1 3 2 1 2 3 4 5 4 5 6 5 5 4 3 2 2 2 2 3 2 2 3 3 3 3 2 2 1 2 1 1 2 3 4 4 4 4 4 4 4 4 4 3 4 4 4 3 4 3 4 5
2 2 2 4 4 5 2 6 5 3 3 4 3 3 4 4 2 2 4 4 4 3 3 4 3 4 4 4 4 4 3 2 1 0 1 3 2 1 2 3 3 4 4 4 3 3 2 1 0 1 2 2 1 1 1 3 3 3 3 3 3 1 1 1 3 3 2 2 1 3 2 3 4 4 4 3 3 3 3 4 4 4 5 5 5
4 3 4 6 5 3 4 7 4 4 4 4 5 2 3 3 3 5 4 4 4 4 5 3 3 3 4 4 4 4 4 4 2 1 1 1 3 4 1 1 2 3 3 2 4 3 4 5 3 3 2 1 0 0 0 1 1 1 1 4 3 3 2 2 3 3 4 3 2 2 2 3 4 3 2 3 4 4 4 4 3 4 4 4 5
3 4 4 4 5 5 5 5 5 4 4 4 3 4 4 4 3 4 3 4 3 3 3 5 3 4 4 4 4 4 4 4 3 2 2 2 2 1 3 2 1 1 3 4 4 5 3 3 4 3 3 1 0 1 0 1 1 0 1 1 2 3 2 3 2 4 5 4 4 4 4 4 5 4 3 3 5 5 4 4 4 4 5 5 5
4 5 5 5 5 4 5 5 6 4 4 4 4 5 4 3 2 2 2 2 4 3 4 5 5 4 6 4 4 4 4 5 4 4 3 3 3 3 2 3 2 0 1 2 3 4 3 3 3 4 1 2 4 2 0 1 1 1 1 1 1 1 4 1 3 5 3 4 4 5 3 5 4 4 3 5 6 5 5 4 5 5 5 5 5
5 6 6 5 4 6 6 5 5 5 4 4 5 4 1 2 1 2 1 3 2 3 4 6 4 3 4 4 6 4 4 5 4 4 4 4 3 3 3 3 2 1 0 0 0 2 2 1 1 2 2 0 4 2 2 2 1 1 1 1 1 0 4 2 1 5 2 3 6 6 5 5 5 6 5 6 5 6 6 5 5 5 6 6 6
6 7 6 5 4 6 5 4 4 4 5 5 4 2 4 4 3 3 5 4 6 5 4 4 5 5 5 4 5 3 4 4 4 4 4 4 4 4 3 3 3 3 2 2 2 0 1 2 1 0 1 2 1 0 2 3 1 3 2 2 3 2 2 2 0 3 3 4 2 3 6 7 6 7 6 6 7 7 6 7 6 7 7 6 7
8 6 4 5 4 5 5 4 4 4 4 4 2 1 3 2 4 5 4 5 5 6 3 3 5 6 4 6 6 5 3 4 4 4 4 4 4 4 4 4 3 3 2 1 2 3 3 3 1 0 2 0 1 1 2 3 5 0 1 1 1 1 2 0 3 0 4 3 2 5 6 5 5 5 6 7 7 6 6 6 7 7 7 7 7
6 3 4 4 5 6 5 5 4 4 4 3 2 2 4 4 4 4 4 6 6 8 6 5 3 4 6 7 5 6 4 3 4 4 4 4 4 5 4 4 4 4 2 4 4 3 2 3 3 3 3 2 2 3 4 3 0 3 0 2 1 1 1 1 1 2 2 4 7 3 3 4 3 5 7 7 7 8 8 7 8 7 7 7 7
5 5 5 4 3 3 3 3 4 4 4 2 3 3 3 4 5 4 5 6 5 7 6 5 6 4 5 6 5 5 5 4 4 5 4 4 4 4 4 4 4 5 4 4 4 3 4 4 3 2 4 4 5 4 3 5 3 5 3 3 3 3 3 2 2 1 2 2 8 5 8 4 1 5 7 7 7 7 8 9 8 8 7 8 8
4 4 4 4 4 4 3 3 5 3 3 4 2 4 4 3 4 4 5 8 5 6 4 7 6 4 5 6 5 6 6 5 5 4 4 4 4 4 4 5 5 5 4 4 4 4 4 4 5 4 3 3 3 3 5 5 6 4 4 3 2 1 1 2 2 3 3 4 9 5 4 4 7 6 3 5 8 9 9 8 8 7 8 8 7
5 4 4 4 4 4 2 3 5 4 3 4 3 5 4 3 4 5 5 7 7 5 7 8 6 5 5 7 6 6 5 6 5 6 4 4 4 4 4 5 4 4 5 5 6 5 5 4 4 3 4 5 5 4 4 4 4 4 4 6 7 6 6 5 4 4 5 5 4 7 5 7 8 9 7 7 6 7 7 7 7 8 8 8 8
Wind_Direction
249 117 279 315 345 344 342 340 346 348 347 345 345 345 345 343 342 342 342 341 341 340 339 338 337 337 337 334 331 330 329 328 327 327 327 326 325 324 322 318 314 312 312 312 310 309 307 300 291 286 292 275 265 246 245 253 238 195 201 197 201 193 198 200 187 169 171 168 166 153 148 139 139 136 132 125 121 116 102 108 114 108 120 125 121
227 237 234 273 350 347 340 339 343 346 345 344 344 345 345 343 342 343 342 342 341 340 339 338 337 337 336 333 330 330 329 327 325 325 329 327 324 322 320 318 314 312 311 311 309 306 307 304 296 293 287 281 264 248 249 254 246 222 192 186 195 200 192 196 179 126 153 163 163 154 143 137 134 142 138 131 126 120 120 123 113 92 105 121 121
189 204 221 263 1 348 334 336 340 344 343 343 345 345 344 343 342 342 342 342 340 338 336 336 336 336 336 332 332 331 329 325 321 325 325 325 324 323 321 319 318 315 311 311 309 307 307 307 302 292 293 284 281 256 251 257 244 243 235 179 194 195 189 173 154 124 143 160 155 155 156 143 134 144 150 137 125 119 126 129 122 118 124 117 114
159 218 221 265 7 345 328 331 337 343 344 345 346 345 344 341 341 341 342 340 337 336 335 335 335 335 333 332 333 332 330 326 323 324 325 325 325 324 320 315 315 316 312 308 308 309 303 303 305 294 282 286 280 266 249 251 253 239 241 200 185 184 175 181 162 123 129 141 149 148 124 141 147 149 151 141 127 121 130 132 128 127 124 119 114
182 209 225 226 244 277 334 332 336 343 344 344 344 344 342 339 340 340 340 340 338 336 335 334 334 335 333 333 333 332 330 328 326 325 325 325 324 324 321 315 311 310 308 308 309 306 301 300 302 298 292 273 269 267 267 253 253 255 232 219 199 188 177 180 156 130 126 134 137 130 128 135 152 165 155 153 137 132 138 141 143 141 131 131 131
196 215 227 226 193 256 322 331 336 338 340 341 342 340 338 338 339 339 340 339 338 337 336 336 336 339 335 333 332 333 333 332 330 326 324 325 324 320 317 312 306 300 298 300 299 301 302 298 302 301 296 293 283 284 257 267 262 250 233 222 206 189 183 176 154 133 142 144 140 137 147 149 162 175 162 157 146 139 147 157 156 151 142 144 139
176 212 220 224 197 244 313 330 331 335 338 339 339 338 337 337 338 337 338 338 338 337 337 339 340 338 339 333 333 335 335 333 331 329 325 324 324 320 312 309 307 303 299 292 293 295 296 295 300 299 292 289 292 286 254 267 278 252 231 220 221 195 182 173 160 146 157 152 137 140 153 160 171 110 172 166 152 156 156 160 170 170 163 160 155
138 196 223 201 198 249 327 323 326 327 334 335 334 335 338 338 335 336 336 337 337 337 338 340 340 339 341 339 339 339 337 334 330 329 326 326 324 321 317 316 311 309 307 303 291 288 291 287 293 297 290 284 276 274 283 279 290 263 228 221 224 197 182 166 158 147 148 147 148 148 156 163 171 149 186 177 166 163 163 166 165 179 179 179 147
147 194 206 192 190 289 320 322 321 320 325 327 330 333 337 336 334 333 335 337 337 339 341 341 339 340 339 339 339 339 338 334 333 331 330 327 324 322 322 319 316 315 311 307 299 287 288 285 287 296 289 282 274 278 286 285 295 283 233 222 222 198 191 164 163 160 152 156 158 155 163 169 156 183 196 181 183 176 171 166 168 170 178 173 155
183 228 189 160 162 266 322 318 315 319 318 325 327 331 335 334 333 333 334 336 340 342 341 340 340 340 342 342 342 342 340 336 334 333 332 331 326 325 324 322 320 318 314 308 298 294 285 285 284 294 288 282 279 278 285 290 280 292 257 219 211 227 204 191 167 164 161 163 162 159 171 166 163 181 209 186 182 180 174 155 109 149 160 156 169
223 232 176 153 185 298 311 309 309 317 321 321 325 333 335 335 333 335 336 337 340 339 339 339 341 344 344 345 345 344 340 335 335 333 333 332 330 324 319 314 312 313 311 306 301 291 285 284 286 293 284 279 278 268 275 281 291 292 285 215 202 215 203 197 168 162 165 164 155 159 178 176 160 186 214 187 181 178 166 140 139 138 157 162 170
222 229 200 174 155 273 289 294 311 314 317 323 328 332 335 335 335 336 337 339 338 338 341 343 345 345 347 349 342 342 340 341 337 335 330 327 326 323 318 313 309 309 307 301 300 295 286 283 284 292 283 278 290 279 272 277 290 299 291 229 213 215 198 198 172 171 170 166 161 165 171 185 170 194 206 187 180 177 165 155 144 154 167 169 173
231 228 214 175 172 247 263 286 298 308 318 323 329 334 336 337 338 339 339 338 339 343 346 347 348 348 348 348 341 342 344 344 340 335 332 326 327 328 325 319 315 307 301 298 295 293 284 283 286 288 282 272 281 296 281 275 277 289 287 281 223 212 196 197 175 174 173 171 167 164 176 179 174 195 199 182 180 175 172 168 167 174 180 183 188
222 224 221 190 207 222 251 265 281 302 311 323 330 333 338 339 339 340 339 338 344 346 348 349 349 350 349 348 342 342 345 343 337 333 328 326 324 325 325 321 316 311 305 297 293 288 287 282 284 284 280 262 273 287 282 275 278 268 284 301 244 210 192 195 176 178 175 170 161 158 166 165 190 193 181 184 176 173 175 168 174 177 182 191 186
202 217 216 211 220 208 245 257 268 286 309 321 328 333 337 339 340 341 340 344 346 349 350 350 351 350 349 348 342 342 346 341 338 336 335 329 323 328 328 321 316 312 304 298 289 290 287 279 278 281 278 258 263 279 278 282 261 265 282 294 239 202 193 185 185 183 174 171 161 161 160 164 200 186 178 181 178 176 177 176 181 184 184 180 170
205 205 211 214 223 223 236 259 264 268 300 317 322 331 336 340 340 341 343 346 347 351 350 350 351 351 350 347 342 338 341 339 340 339 336 333 328 327 320 313 307 309 311 298 290 286 285 276 273 275 269 258 258 268 276 279 270 277 278 295 221 192 197 169 181 183 178 177 166 162 168 177 198 181 178 185 174 178 181 186 183 183 178 184 183
245 210 193 225 232 231 238 254 249 254 303 310 318 327 332 336 338 341 344 346 347 350 350 350 351 351 349 347 343 337 338 334 335 336 336 337 333 328 325 320 309 307 302 299 287 281 280 270 266 266 266 259 260 264 268 277 273 273 289 325 243 198 195 179 172 185 176 173 162 163 170 201 185 177 178 183 180 183 186 195 169 178 193 184 181
246 210 209 219 228 233 241 249 253 276 272 307 316 321 325 327 332 336 343 345 347 349 350 349 348 349 346 347 345 343 336 333 331 327 328 333 334 332 334 327 326 320 309 304 291 280 275 273 270 264 265 264 260 259 264 268 262 285 306 308 295 213 199 172 180 162 178 159 159 156 170 206 171 170 177 180 180 185 181 196 179 186 195 200 188
247 225 230 218 233 232 247 245 251 249 266 293 301 314 316 316 321 328 336 340 345 348 347 345 344 342 339 340 343 346 339 333 328 326 323 325 332 330 328 331 332 337 320 307 286 282 273 269 264 268 261 258 262 257 258 255 269 290 289 295 281 221 206 169 163 162 153 152 153 158 186 186 167 168 178 184 187 195 193 184 184 186 188 194 200
267 242 244 234 235 218 239 243 249 250 250 279 296 316 310 308 316 325 331 334 339 344 343 341 337 336 336 335 337 337 330 327 328 323 312 319 320 321 323 334 334 329 325 319 295 281 272 263 263 255 250 254 255 256 255 251 281 288 281 290 266 189 205 177 163 147 128 141 143 165 186 169 164 167 172 177 184 184 186 180 178 181 182 193 200
325 270 226 237 235 217 237 240 249 246 263 280 306 314 301 309 322 326 328 329 334 342 341 338 335 337 334 330 330 326 326 327 322 312 311 311 314 317 327 337 334 331 322 313 287 276 267 269 265 253 248 246 246 250 247 276 307 300 281 290 235 161 135 111 216 114 107 136 149 200 171 159 165 170 177 183 186 187 184 184 182 182 183 193 205
283 286 284 258 230 233 240 230 238 273 279 294 310 310 308 315 321 323 317 319 332 339 340 334 337 335 331 331 321 325 327 325 321 314 308 306 312 314 329 345 335 337 340 325 312 289 273 271 259 256 247 240 242 252 326 329 309 298 297 275 176 170 138 145 154 119 116 128 154 196 162 163 165 171 176 183 186 186 191 190 195 185 188 189 210
293 269 280 263 228 233 241 223 227 266 286 308 314 313 311 317 319 320 318 324 333 338 332 336 333 331 331 327 322 324 326 326 320 321 315 312 311 312 323 350 341 340 352 350 312 299 295 272 263 252 249 245 274 354 337 310 297 304 302 244 172 156 157 145 136 114 94 83 112 97 98 158 170 168 174 178 187 189 194 196 195 187 180 193 199
263 239 249 277 224 220 220 213 207 236 237 301 314 313 307 320 313 314 317 318 336 333 330 333 330 332 331 324 325 327 327 325 327 328 324 317 312 318 327 352 349 343 356 356 339 284 266 282 266 252 241 253 24 319 331 301 298 304 268 206 181 157 149 124 121 117 114 109 88 81 73 60 44 71 178 180 189 195 193 203 190 160 163 142 100
242 296 311 280 286 232 226 253 248 243 230 277 302 305 308 327 316 312 317 327 339 333 330 331 328 334 327 326 328 327 323 327 328 326 331 323 320 321 329 337 349 346 353 356 344 299 265 246 290 296 334 35 329 293 301 292 297 280 235 182 180 165 142 116 120 112 66 50 84 77 66 64 55 39 352 190 186 197 196 183 145 157 151 133 126
287 290 263 277 284 254 213 229 231 254 241 237 255 284 334 325 319 314 324 331 340 334 332 332 334 333 323 332 336 337 335 330 333 332 334 335 320 324 327 333 348 354 355 344 342 336 233 230 227 264 282 294 250 265 257 280 286 282 210 185 178 164 131 114 126 123 119 84 82 92 79 52 63 65 48 302 177 126 187 129 144 142 155 137 119
244 241 269 279 292 264 234 240 228 272 269 255 288 317 307 299 291 296 325 319 332 341 336 331 330 327 335 342 355 344 338 331 332 334 337 339 323 324 332 338 337 0 358 353 347 350 348 217 209 211 238 266 264 265 277 273 270 282 220 202 152 131 115 106 93 93 94 90 86 90 102 118 92 69 41 135 139 122 118 132 141 161 156 153 150
258 262 284 286 288 267 246 228 250 247 263 286 290 316 306 319 304 316 321 304 332 334 320 322 322 330 335 343 338 335 337 338 331 336 340 334 337 327 334 340 342 338 14 9 358 1 356 12 149 212 185 201 239 266 272 259 257 260 204 145 109 115 114 101 91 99 94 84 80 99 107 109 106 76 55 100 135 134 138 141 152 156 163 170 179
257 266 267 310 267 248 240 237 248 255 255 244 274 290 300 309 309 315 308 311 326 313 300 319 335 326 330 346 346 346 350 344 335 332 326 343 343 336 336 343 350 340 351 44 15 3 5 9 16 29 75 133 168 208 237 277 252 247 165 95 102 106 104 93 94 82 73 71 74 85 97 112 116 100 104 98 106 116 134 149 162 174 186 181 190
231 246 272 255 260 254 207 227 233 231 239 196 255 308 293 317 298 292 284 316 309 307 320 335 326 330 327 347 343 340 345 342 332 325 335 342 347 346 339 345 350 352 341 40 37 11 14 14 15 21 9 15 4 12 353 15 346 179 121 103 88 84 85 94 91 88 77 78 74 79 83 86 105 119 127 148 142 130 149 165 168 190 200 216 225
247 262 250 245 239 191 230 239 244 230 188 226 261 267 289 284 280 277 295 296 302 314 324 327 329 324 317 331 345 339 342 345 343 332 330 341 350 357 351 336 351 0 353 340 51 62 30 27 17 16 19 7 11 2 347 36 41 43 77 94 80 77 84 94 101 102 94 81 94 95 97 102 108 121 132 139 136 136 149 167 198 227 251 267 275
225 245 234 229 215 211 221 239 229 210 182 235 250 274 274 271 274 284 283 284 296 307 314 325 320 309 311 330 343 345 346 344 345 342 338 337 345 353 3 356 348 356 355 354 349 26 94 70 42 13 13 22 26 18 11 37 64 40 72 76 88 85 77 92 101 110 117 113 115 117 115 105 99 104 112 119 134 154 173 184 220 270 290 297 292
230 221 225 204 211 219 217 241 200 192 198 232 234 245 255 261 263 262 270 282 291 298 307 311 307 293 301 322 333 343 2 348 340 344 338 331 331 346 6 14 353 351 358 352 349 349 0 75 56 43 34 25 24 19 17 34 64 47 51 71 87 101 108 102 111 124 147 151 148 131 101 103 112 101 94 84 92 160 204 203 193 229 261 263 271
216 218 202 222 227 221 212 226 197 211 221 223 227 236 244 240 242 249 255 268 265 263 274 290 299 294 289 314 323 340 7 348 349 344 345 338 335 339 351 10 8 355 355 357 2 356 4 7 70 68 38 40 28 17 14 42 40 60 52 51 72 74 89 112 125 127 117 86 65 82 90 115 118 117 94 124 124 207 215 220 215 207 244 256 269
215 178 188 220 213 226 208 215 215 225 239 246 242 243 241 241 247 254 254 246 258 245 256 270 286 290 287 303 310 327 355 0 351 354 343 345 340 337 346 344 346 18 12 9 6 7 10 15 4 45 86 56 58 32 27 36 29 39 55 46 73 82 76 85 87 86 90 100 89 75 70 65 63 51 31 7 338 347 16 1 276 234 231 253 266
199 204 215 211 223 235 221 215 230 228 231 233 238 236 242 240 244 255 262 261 265 263 261 252 258 281 285 294 286 306 341 347 359 12 352 347 344 334 331 329 340 351 38 29 14 16 6 13 13 14 10 71 83 63 45 47 43 42 28 50 47 88 94 89 80 73 47 68 71 70 46 39 53 109 134 303 290 289 268 224 235 231 225 236 254
206 212 216 224 239 250 229 218 232 231 239 244 240 242 240 245 244 251 257 275 273 269 270 267 272 267 275 296 267 281 307 322 347 33 19 347 346 342 330 335 337 347 1 25 52 26 16 12 15 13 25 352 41 106 80 51 59 55 54 59 40 52 100 112 111 107 86 75 84 100 86 26 316 266 218 224 231 240 261 243 236 248 238 229 260
216 206 206 191 215 228 225 224 245 241 237 246 245 250 254 261 269 263 266 266 263 260 274 297 279 268 275 269 274 261 291 310 325 16 46 351 342 339 332 342 343 351 358 12 26 33 51 37 24 21 14 24 4 13 81 102 83 50 68 87 93 102 117 116 127 130 133 142 152 170 186 189 204 233 239 232 228 245 259 270 273 300 308 295 293
217 221 224 239 265 270 273 272 267 268 266 271 288 299 312 308 297 314 312 283 277 269 261 279 260 282 269 258 264 280 265 278 317 330 20 30 3 352 348 345 350 351 3 10 18 20 24 46 63 15 25 39 35 34 22 30 47 44 78 76 53 24 33 122 144 150 156 175 187 192 179 205 208 223 235 232 251 259 248 256 261 249 256 254 258
246 250 245 269 262 283 276 286 272 263 289 305 324 309 326 315 303 324 326 313 305 299 284 234 269 267 261 257 255 264 265 253 262 309 335 338 41 4 343 345 359 4 6 9 360 11 34 27 23 97 39 6 15 28 43 54 36 33 359 5 64 44 320 312 266 212 194 187 197 192 202 198 204 213 220 222 219 220 223 224 225 228 220 234 230
254 245 257 269 256 241 264 264 256 270 256 270 282 254 267 295 325 288 255 269 274 282 277 280 263 246 253 252 255 257 257 271 246 177 329 319 326 339 33 354 0 8 9 355 336 332 353 37 59 68 74 64 29 5 4 66 41 349 357 346 339 337 290 301 298 302 279 278 280 243 246 216 221 216 222 235 235 242 238 236 235 236 234 231 246
259 241 237 239 244 259 241 252 271 265 242 222 231 218 207 197 218 252 256 270 285 293 300 284 252 264 253 247 248 254 258 252 256 231 198 250 310 329 356 50 18 1 346 337 3 11 1 17 12 34 19 81 77 234 217 147 29 106 346 330 333 318 296 275 251 245 244 252 235 240 251 249 255 249 264 254 254 251 253 252 258 259 253 246 246
268 253 262 283 270 259 246 249 258 255 252 234 211 234 239 249 200 248 204 278 248 261 264 273 287 281 271 254 253 254 255 266 248 227 235 232 232 264 297 293 99 52 22 358 2 6 10 24 25 26 334 12 30 280 72 78 73 158 135 57 329 359 325 327 314 271 244 233 222 227 230 238 243 240 233 246 252 253 252 249 250 249 251 250 245
275 274 260 251 264 263 257 253 256 249 254 245 226 240 241 256 276 258 286 218 267 311 295 288 293 304 286 267 257 245 246 248 255 248 238 227 224 236 257 282 302 124 110 27 350 344 5 9 40 28 44 359 359 317 37 155 144 105 329 185 234 95 321 315 314 286 249 236 221 240 235 247 259 267 256 251 249 248 249 244 248 242 245 244 246
256 249 251 242 235 241 245 239 248 246 246 253 241 243 264 291 315 321 356 335 335 344 344 312 302 291 300 298 264 234 236 239 245 251 248 253 230 224 221 245 258 265 209 134 310 288 283 215 148 81 72 76 336 332 314 15 336 195 151 68 7 268 226 237 279 281 195 200 231 223 226 228 238 242 237 248 246 246 249 248 245 245 245 246 247
258 248 232 241 236 254 256 257 258 259 252 253 245 226 225 227 267 291 299 311 301 307 292 266 300 306 275 282 309 264 246 249 250 247 247 254 264 241 218 215 248 262 221 217 215 278 298 327 301 128 153 179 171 166 311 317 272 275 233 235 180 200 218 248 158 285 291 228 239 214 213 215 214 221 224 235 235 240 229 247 239 243 234 233 237
254 250 265 252 251 257 257 251 244 252 256 258 253 208 250 244 229 236 240 255 263 278 247 261 255 273 300 298 287 305 263 248 262 246 252 251 253 263 257 244 237 225 240 219 253 226 215 209 201 49 280 4 78 283 236 247 327 251 34 307 322 318 159 121 252 19 327 321 297 259 252 237 232 237 247 245 246 247 247 235 244 241 242 236 236
252 299 272 267 248 247 243 246 253 262 265 278 273 222 230 243 249 254 249 251 237 256 271 279 270 278 299 284 293 290 298 266 271 267 251 253 250 261 256 266 270 267 228 231 236 250 258 277 206 189 168 187 183 222 273 308 26 272 328 341 311 320 353 335 151 208 217 297 303 311 289 292 291 257 244 247 243 238 246 242 241 243 242 242 237
269 263 261 266 272 271 272 287 281 273 290 302 281 267 234 231 231 245 268 255 249 260 283 286 287 294 296 288 289 283 290 284 258 264 263 250 251 251 259 263 262 266 262 271 267 258 244 252 254 229 198 201 189 193 170 227 215 247 327 326 356 326 332 338 353 57 214 253 284 287 292 324 263 262 251 250 251 244 238 239 233 231 233 240 231
304 298 294 302 298 301 290 300 285 296 302 306 290 280 251 247 246 249 254 276 274 282 296 291 293 305 295 289 288 291 287 294 280 261 268 256 253 254 256 253 255 262 266 256 265 271 269 266 266 263 247 238 223 193 203 209 200 223 206 194 206 318 320 300 274 238 270 215 250 259 243 270 290 286 290 261 247 240 237 236 238 235 234 236 234
319 328 319 322 308 314 322 318 289 316 317 303 304 279 274 235 244 248 250 267 278 290 305 299 300 309 295 291 291 287 292 283 290 286 263 264 256 246 246 250 253 260 266 267 258 254 257 249 252 247 261 262 272 247 257 247 222 220 216 198 212 199 207 202 206 204 200 232 271 250 226 219 236 275 234 243 247 245 240 235 234 238 233 233 234